Location: Naloco
(16.5478°S, 37.1017°E)
Time: 01:53:15
(UTC+00:00)

Milstar 3 Cent rocket - Pass Details

Date: 13 August 2020
Orbit: 707 x 5146 km, 28.3° (Epoch: 23 September)

Event Time Altitude Azimuth Distance (km) Brightness Sun altitude
Rises 17:41:51 0° 240° (WSW) 3,368 6.0 -33.6°
Reaches altitude 10° 17:44:44 10° 228° (SW) 2,251 4.8 -34.3°
Enters shadow 17:45:54 16° 219° (SW) 1,853 4.2 -34.6°
